User: anonymous   Login
Location: Unspecified
(0.0000°N, 0.0000°E)
Time: 14:17:13
(UTC+00:00)
Language:

Tiros 1 despin weight - Orbit

View from above orbital plane
View from above orbital plane
View from above satellite
View from above satellite

Ground track
Ground track

The orbit data is extracted from the following two-line orbital elements,

1 00115U 60002D   21212.91079867  .00000013  00000-0  28531-4 0  9997
2 00115  48.1669 105.0053 0034899 254.5510 105.1547 14.83801487252615
Epoch (UTC): 31 July 2021 21:51:33
Eccentricity: 0.0034899
inclination: 48.1669°
perigee height: 593 km
apogee height: 642 km
right ascension of ascending node: 105.0053°
argument of perigee: 254.5510°
revolutions per day: 14.83801487
mean anomaly at epoch: 105.1547°
orbit number at epoch: 25261

The dashed part of the orbit path shows where the satellite is in the earth's shadow,  

DLR